Location: Izdebno
(52.6670°N, 16.2170°E)
Time: 22:19:00
(UTC+01:00)

Transit 4A - Visible Passes

Search period start: 30 November 2023 00:00
Search period end: 10 December 2023 00:00
Orbit: 864 x 979 km, 66.8° (Epoch: 30 November)

Date Brightness Start Highest point End Pass type
(mag) Time Alt. Az. Time Alt. Az. Time Alt. Az.
30 Nov 9.6 03:13:49 26° NE 03:13:49 26° NE 03:17:59 10° E visible
30 Nov 8.1 04:57:20 32° NNW 05:00:17 67° NE 05:06:16 10° SE visible
30 Nov 8.7 06:40:55 10° NW 06:46:16 32° WSW 06:51:28 10° S visible
01 Dec 9.4 03:23:05 31° NE 03:23:05 31° NE 03:27:40 10° E visible
01 Dec 7.8 05:06:36 34° NW 05:09:28 86° NE 05:15:28 10° SE visible
01 Dec 9.1 06:50:26 10° WNW 06:55:06 23° WSW 06:59:40 10° SSW visible
02 Dec 9.1 03:32:25 36° NE 03:32:25 36° NE 03:37:17 10° E visible
02 Dec 7.8 05:15:56 36° NW 05:18:34 73° SW 05:24:31 10° SSE visible
02 Dec 9.4 07:00:15 10° WNW 07:03:52 16° WSW 07:07:25 10° SW visible
03 Dec 8.8 03:41:49 43° ENE 03:41:49 43° ENE 03:46:50 10° ESE visible
03 Dec 8.0 05:25:21 36° WNW 05:27:36 54° WSW 05:33:23 10° SSE visible
04 Dec 8.5 03:51:17 51° ENE 03:51:17 51° ENE 03:56:15 10° ESE visible
04 Dec 8.3 05:34:49 33° W 05:36:34 40° WSW 05:42:02 10° S visible
05 Dec 10.7 02:17:18 10° E 02:17:18 10° E 02:17:24 10° E visible
05 Dec 8.4 04:00:51 55° ESE 04:00:51 55° ESE 04:05:33 10° SE visible
05 Dec 8.7 05:44:23 27° W 05:45:26 29° WSW 05:50:27 10° SSW visible
06 Dec 10.6 02:26:56 11° E 02:26:56 11° E 02:27:04 10° E visible
06 Dec 8.4 04:10:29 49° SE 04:10:29 49° SE 04:14:42 10° SE visible
06 Dec 9.1 05:54:02 21° WSW 05:54:15 21° WSW 05:58:31 10° SSW visible
06 Dec 10.2 19:14:53 10° S 19:15:07 11° S 19:15:07 11° S visible
07 Dec 8.8 04:20:13 37° SSE 04:20:13 37° SSE 04:23:41 10° SSE visible
07 Dec 9.5 06:03:46 14° WSW 06:03:46 14° WSW 06:06:04 10° SW visible
07 Dec 9.9 19:23:32 10° SSW 19:25:00 18° S 19:25:00 18° S visible
08 Dec 9.3 04:30:01 25° S 04:30:01 25° S 04:32:29 10° S visible
08 Dec 9.7 17:49:35 10° SE 17:51:16 14° SE 17:51:16 14° SE visible
08 Dec 9.5 19:32:23 10° SSW 19:34:49 25° SSW 19:34:49 25° SSW visible
09 Dec 9.7 04:39:52 16° S 04:39:52 16° S 04:41:04 10° S visible
09 Dec 9.2 17:57:19 10° SSE 18:01:01 22° ESE 18:01:01 22° ESE visible
09 Dec 9.3 19:41:26 10° SW 19:44:34 31° SW 19:44:34 31° SW visible
